North Myrtle Beach, SC

9:24 AM EDT on October 17, 2017 (GMT -0400)
Grand Strand

Weather History for KCRE - January, 2013

Change the Weather History Date:

Thursday, January 24, 2013

  Actual Average Record
Temperature  
Mean Temperature 42 °F 46 °F  
Max Temperature 57 °F 55 °F 72 °F (1950)
Min Temperature 26 °F 36 °F 14 °F (2014)
Degree Days  
Heating Degree Days 23 19  
Month to date heating degree days 307 467  
Since 1 July heating degree days 1168 1335  
Cooling Degree Days 0 0  
Month to date cooling degree days 2 0  
Year to date cooling degree days 2 0  
Moisture  
Dew Point 26 °F    
Average Humidity 55    
Maximum Humidity 76    
Minimum Humidity 33    
Precipitation  
Precipitation 0.00 in 0.14 in 1.36 in (2015)
Month to date precipitation 0.43 2.70  
Year to date precipitation 0.43 2.70  
Sea Level Pressure  
Sea Level Pressure 30.24 in    
Wind  
Wind Speed 12 mph (NNW)    
Max Wind Speed 22 mph    
Max Gust Speed 30 mph    
Visibility 10 miles    
Events      
T = Trace of Precipitation, MM = Missing Value Source: NWS Daily Summary

Daily Weather History Graph

Daily Weather History Graph

Search for Another Location

Airport or City:

Trip Planner

Search our weather history database for the weather conditions in past years. The results will help you decide how hot, cold, wet, or windy it might be!

Date:

Astronomy

Jan. 24, 2013 Rise Set
Actual Time 7:16 AM EST 5:38 PM EST
Civil Twilight 6:49 AM EST 6:04 PM EST
Nautical Twilight 6:19 AM EST 6:35 PM EST
Astronomical Twilight 5:49 AM EST 7:04 PM EST
Moon 3:40 PM EST (1/24) 5:10 AM EST (1/24)
Length of Visible Light 11h 15m
Length of Day
10h 21m
Waxing Gibbous, 94% of the Moon is Illuminated
Jan 24
Waxing Gibbous
Jan 26
Full
Feb 3
Last Quarter
Feb 10
New
Feb 17
First Quarter

Hourly Weather History & Observations

Time (EST) Temp. Windchill Dew Point Humidity Pressure Visibility Wind Dir Wind Speed Gust Speed Precip Events Conditions
12:53 AM 46.9 °F - 30.9 °F 54% 30.12 in 10.0 mi West 12.7 mph - N/A   Clear
1:53 AM 46.9 °F - 30.9 °F 54% 30.10 in 10.0 mi WSW 13.8 mph 24.2 mph N/A   Clear
2:53 AM 46.9 °F - 33.1 °F 59% 30.08 in 10.0 mi WSW 10.4 mph 18.4 mph N/A   Clear
3:53 AM 48.0 °F - 35.1 °F 61% 30.05 in 10.0 mi West 12.7 mph 20.7 mph N/A   Clear
4:53 AM 48.0 °F - 36.0 °F 63% 30.04 in 10.0 mi WSW 11.5 mph - N/A   Clear
5:53 AM 46.9 °F - 37.0 °F 68% 30.03 in 10.0 mi West 10.4 mph 16.1 mph N/A   Clear
6:53 AM 46.0 °F 41.9 °F 37.0 °F 71% 30.06 in 10.0 mi West 8.1 mph - N/A   Clear
7:53 AM 45.0 °F 41.8 °F 37.9 °F 76% 30.08 in 8.0 mi West 5.8 mph - N/A   Clear
8:53 AM 48.9 °F - 39.0 °F 69% 30.10 in 8.0 mi West 6.9 mph - N/A   Clear
9:53 AM 53.1 °F - 39.9 °F 61% 30.12 in 10.0 mi NW 10.4 mph 21.9 mph N/A   Clear
10:53 AM 55.9 °F - 39.0 °F 53% 30.14 in 10.0 mi North 10.4 mph 18.4 mph N/A   Scattered Clouds
11:53 AM 52.0 °F - 32.0 °F 47% 30.18 in 10.0 mi NNE 18.4 mph 25.3 mph N/A   Clear
12:53 PM 50.0 °F - 26.1 °F 39% 30.19 in 10.0 mi North - - 0.05 in   Clear
1:53 PM 48.0 °F - 21.9 °F 36% 30.22 in 10.0 mi North 17.3 mph 23.0 mph N/A   Overcast
2:53 PM 46.9 °F - 21.0 °F 36% 30.24 in 10.0 mi NNE 17.3 mph 24.2 mph N/A   Overcast
3:53 PM 44.1 °F 37.1 °F 18.0 °F 35% 30.30 in 10.0 mi NNE 15.0 mph 28.8 mph N/A   Mostly Cloudy
4:53 PM 42.1 °F 33.9 °F 18.0 °F 38% 30.33 in 10.0 mi NNE 17.3 mph 26.5 mph N/A   Scattered Clouds
5:53 PM 39.0 °F 30.6 °F 12.9 °F 34% 30.38 in 10.0 mi NE 15.0 mph 25.3 mph N/A   Partly Cloudy
6:53 PM 35.1 °F 25.5 °F 15.1 °F 44% 30.43 in 10.0 mi NE 15.0 mph 27.6 mph N/A   Clear
7:53 PM 33.1 °F 24.9 °F 14.0 °F 46% 30.46 in 10.0 mi NE 10.4 mph - N/A   Clear
8:53 PM 30.9 °F 19.8 °F 10.9 °F 43% 30.49 in 10.0 mi NE 16.1 mph 23.0 mph N/A   Clear
9:53 PM 28.9 °F 21.1 °F 9.0 °F 43% 30.50 in 10.0 mi NE 8.1 mph - N/A   Clear
10:53 PM 27.0 °F 19.5 °F 9.0 °F 47% 30.52 in 10.0 mi NE 6.9 mph - N/A   Clear
11:53 PM 27.0 °F 19.5 °F 9.0 °F 47% 30.51 in 10.0 mi NE 6.9 mph - N/A   Clear